Weather History for KCEZ - January, 2012

Change the Weather History Date:

Friday, January 6, 2012

  Actual Average Record
Temperature  
Mean Temperature 33 °F 27 °F  
Max Temperature 49 °F 41 °F 55 °F (2003)
Min Temperature 16 °F 14 °F -5 °F (2013)
Degree Days  
Heating Degree Days 32 38  
Month to date heating degree days 202 228  
Since 1 July heating degree days 2746 2886  
Cooling Degree Days 0 0  
Month to date cooling degree days 0  
Year to date cooling degree days 0  
Moisture  
Dew Point 14 °F    
Average Humidity 55    
Maximum Humidity 80    
Minimum Humidity 29    
Precipitation  
Precipitation 0.00 in 0.03 in 0.31 in (2008)
Month to date precipitation 0.00 0.22  
Year to date precipitation 0.00 0.22  
Sea Level Pressure  
Sea Level Pressure 30.14 in    
Wind  
Wind Speed 5 mph (ESE)    
Max Wind Speed 13 mph    
Max Gust Speed 16 mph    
Visibility 10 miles    
Events      
T = Trace of Precipitation, MM = Missing Value Source: NWS Daily Summary

Daily Weather History Graph

Daily Weather History Graph

Search for Another Location

Airport or City:

Trip Planner

Search our weather history database for the weather conditions in past years. The results will help you decide how hot, cold, wet, or windy it might be!

Date:

Astronomy

Jan. 06, 2012 Rise Set
Actual Time 7:29 AM MST 5:11 PM MST
Civil Twilight 7:00 AM MST 5:40 PM MST
Nautical Twilight 6:27 AM MST 6:12 PM MST
Astronomical Twilight 5:56 AM MST 6:44 PM MST
Moon 3:05 PM MST (1/6) 5:11 AM MST (1/6)
Length of Visible Light 10h 40m
Length of Day
9h 42m
Waxing Gibbous, 93% of the Moon is Illuminated
Jan 6
Waxing Gibbous
Jan 9
Full
Jan 16
Last Quarter
Jan 23
New
Jan 30
First Quarter

Hourly Weather History & Observations

Time (MST) Temp. Windchill Dew Point Humidity Pressure Visibility Wind Dir Wind Speed Gust Speed Precip Events Conditions
1:53 AM 17.1 °F 7.6 °F 10.9 °F 77% 30.13 in 10.0 mi East 6.9 mph - N/A   Clear
2:53 AM 17.1 °F 8.7 °F 10.9 °F 77% 30.13 in 10.0 mi ENE 5.8 mph - N/A   Clear
3:53 AM 17.1 °F 8.7 °F 12.0 °F 81% 30.12 in 10.0 mi ENE 5.8 mph - N/A   Clear
4:53 AM 18.0 °F 11.1 °F 12.9 °F 81% 30.13 in 10.0 mi East 4.6 mph - N/A   Clear
5:53 AM 17.1 °F 7.6 °F 12.0 °F 81% 30.22 in 10.0 mi ESE 6.9 mph - N/A   Clear
6:53 AM 17.1 °F 8.7 °F 12.0 °F 81% 30.22 in 10.0 mi ENE 5.8 mph - N/A   Clear
7:53 AM 17.1 °F 10.0 °F 12.0 °F 81% 30.22 in 10.0 mi ESE 4.6 mph - N/A   Clear
8:53 AM 28.0 °F 22.8 °F 17.1 °F 63% 30.20 in 10.0 mi East 4.6 mph - N/A   Clear
9:53 AM 37.0 °F - 17.1 °F 44% 30.19 in 10.0 mi Calm Calm - N/A   Clear
10:53 AM 42.1 °F 37.7 °F 17.1 °F 37% 30.17 in 10.0 mi WNW 6.9 mph - N/A   Clear
11:53 AM 45.0 °F 41.8 °F 18.0 °F 34% 30.13 in 10.0 mi SW 5.8 mph - N/A   Clear
12:53 PM 46.9 °F - 18.0 °F 32% 30.10 in 10.0 mi SSW 8.1 mph - N/A   Clear
1:53 PM 48.0 °F - 18.0 °F 30% 30.08 in 10.0 mi SSW 10.4 mph - N/A   Clear
2:53 PM 48.9 °F - 18.0 °F 29% 30.07 in 10.0 mi SSW 9.2 mph - N/A   Clear
3:53 PM 48.0 °F - 17.1 °F 29% 30.07 in 10.0 mi SW 9.2 mph - N/A   Clear
4:53 PM 42.1 °F 39.2 °F 16.0 °F 35% 30.10 in 10.0 mi West 4.6 mph - N/A   Clear
5:53 PM 26.1 °F - 10.0 °F 51% 30.17 in 10.0 mi Calm Calm - N/A   Clear
6:53 PM 26.1 °F 17.6 °F 12.9 °F 58% 30.17 in 10.0 mi ENE 8.1 mph - N/A   Clear
7:53 PM 24.1 °F 19.7 °F 12.9 °F 62% 30.17 in 10.0 mi ENE 3.5 mph - N/A   Clear
8:53 PM 21.0 °F 13.4 °F 12.9 °F 71% 30.14 in 10.0 mi East 5.8 mph - N/A   Clear
9:53 PM 19.0 °F 12.3 °F 12.0 °F 74% 30.10 in 10.0 mi East 4.6 mph - N/A   Clear
10:53 PM 16.0 °F - 10.0 °F 77% 30.10 in 10.0 mi Calm Calm - N/A   Clear
11:53 PM 16.0 °F - 10.9 °F 81% 30.07 in 10.0 mi Calm Calm - N/A   Clear